Starlink 3162

operational
NORAD ID: 49411 Int'l Des: 2021-104 Owner: SPXS Country: US Constellation: starlink
LEOCIRCULAR

Über Starlink 3162

Beschreibung wird geladen...

Live-Position

3D-Globus wird geladen...

Nächste Überflüge

Höhenverlauf

Altitude vs Time

uPlot chart will show altitude changes over time

Zweizeiliger Elementsatz

1 49411U 21104D 25257.38178798 -.00001476 00000-0 -74676-4 0 9993
2 49411 53.2162 290.6005 0001316 91.1574 268.9569 15.08828335212159
Epoch: 14. Sept. 2025 • Age: 25 hours

Aktueller Status

Höhe 540.4 km
Geschwindigkeit 7.59 km/s
Subsatellitenpunkt 2.72°N, 134.01°E
Startdatum 13. Nov. 2021
Alter 3.8 years
Typ internet

Technische Details

Klassifizierung Payload
Masse 290.00 kg
Trockenmasse 270.00 kg
Gesamtmasse 290.00 kg
Länge 0.20 m
Durchmesser 2.80 m
Spannweite 9.00 m
Form Box + pan
Hersteller SPXS
Bus-Typ Starlink
Phasenstatus In Orbit
Besitzer/Staat SPXS/US

Große Konstellationen

Loading constellations...